Regional Weather Roundup
Issued by NWS Mt. Holly, NJ

Home | Current Version | Previous Version | Text Only | Print | Product List | Glossary On
Versions: 1 2 3 4 5 6 7 8 9 10 11 12 13 14 15 16 17 18 19 20 21 22 23 24 25 26 27 28 29 30 31 32 33 34 35 36 37 38 39 40 41 42 43 44 45 46 47 48 49 50
000
ASUS41 KPHI 052111
RWRPHI

REGIONAL WEATHER ROUNDUP
NATIONAL WEATHER SERVICE MOUNT HOLLY NJ
500 PM EDT TUE MAY 05 2015

NOTE:  "FAIR" INDICATES FEW OR NO CLOUDS BELOW 12,000 FEET WITH NO
SIGNIFICANT WEATHER AND/OR OBSTRUCTIONS TO VISIBILITY.

 * = STATION DOES NOT REPORT PRECIPITATION (E.G. RAIN, SNOW, ETC.)
        OR FOG.

NJZ015>026-052200-
SOUTHERN NEW JERSEY

CITY           SKY/WX    TMP DP  RH WIND       PRES   REMARKS
POMONA         MOSUNNY   85  54  34 W12       30.15F
RIO GRANDE*    MOSUNNY   75  55  50 S7        30.20F
MILLVILLE      MOSUNNY   82  57  42 SW5       30.17F
WRIGHTSTOWN    PTSUNNY   80  56  44 SW9       30.13F
MOUNT HOLLY    LGT RAIN  77  64  64 N3        30.15F
TRENTON        CLOUDY    79  56  45 W7        30.15F

$$
NJZ001>014-052200-
NORTHERN NEW JERSEY

CITY           SKY/WX    TMP DP  RH WIND       PRES   REMARKS
SUSSEX         PTSUNNY   81  45  28 VRB3      30.16F
ANDOVER*         N/A     79  50  36 VRB3      30.15F
MORRISTOWN     PTSUNNY   81  50  34 N8        30.14F
NEWARK         PTSUNNY   79  54  41 SE8       30.14F
TETERBORO      PTSUNNY   82  50  32 W9        30.12F
CALDWELL       PTSUNNY   82  49  31 W8        30.14F
SOMERVILLE     CLOUDY    81  53  37 CALM      30.12F
ALLAIRE*       MOSUNNY   73  52  46 SE10G17   30.16F
TOMS RIVER*    MOSUNNY   79  55  44 SE7       30.16F

$$
PAZ043-044-047-054-055-060>062-066>071-052200-
EASTERN PENNSYLVANIA

CITY           SKY/WX    TMP DP  RH WIND       PRES   REMARKS
PHILADELPHIA   PTSUNNY   83  55  38 W10       30.16F
NORTH PHILA    PTSUNNY   81  56  42 SW7       30.17F
BLUE BELL      CLOUDY    81  55  41 CALM      30.16F
DOYLESTOWN     CLOUDY    76  55  48 NW8       30.16F
QUAKERTOWN*    CLOUDY    75  57  53 W3        30.18F
POTTSTOWN      CLOUDY    76  57  51 VRB5      30.19F
LANCASTER      PTSUNNY   78  58  49 W12       30.19F
COATESVILLE    PTSUNNY   75  59  57 W8        30.20F
READING        CLOUDY    76  55  48 W9        30.17F
ALLENTOWN      CLOUDY    77  56  48 W7        30.17F
MOUNT POCONO   CLOUDY    72  47  40 W6        30.21F
HAZLETON       CLOUDY    70  54  56 W6        30.25S
WILKES BARRE   PTSUNNY   79  46  31 CALM      30.18F

$$
DEZALL-MDZ008-012-015-019-020-052200-
DELAWARE AND EASTERN MARYLAND

CITY           SKY/WX    TMP DP  RH WIND       PRES   REMARKS
WILMINGTON     MOSUNNY   82  60  47 W8        30.17F
DOVER          SUNNY     83  60  45 W9        30.15F
GEORGETOWN     PTSUNNY   84  56  38 VRB6      30.18F
EASTON         MOSUNNY   84  59  42 SW7       30.22F
ABERDEEN       PTSUNNY   84  63  48 SW8       30.15F
PATUXENT       MOSUNNY   75  58  55 SE14      30.19F
OCEAN CITY     SUNNY     68  56  65 VRB6      30.22S
WALLOPS ISLAND SUNNY     72  57  59 S14       30.22F
CAMBRIDGE      SUNNY     81  55  41 S8        30.19F
SALISBURY      SUNNY     81  55  40 SW8       30.20F

$$
PAZ001-021-NYZ056-072-MDZ011-DCZ001-052200-
OTHER NEARBY LOCATIONS

CITY           SKY/WX    TMP DP  RH WIND       PRES   REMARKS
HARRISBURG     PTSUNNY   78  59  51 NW7       30.18F
STATE COLLEGE  PTSUNNY   72  57  60 W6        30.22F
WILLIAMSPORT   LGT RAIN  77  54  44 CALM      30.17F
BINGHAMTON     CLOUDY    70  45  40 N10       30.22F
NEW YORK CITY  PTSUNNY   81  54  39 VRB3      30.17F
BALTIMORE      PTSUNNY   81  56  42 SE8       30.17F
WASHINGTON DC  PTSUNNY   82  61  48 CALM      30.17F

$$



USA.gov is the U.S. government's official web portal to all federal, state and local government web resources and services.